Back to catalog

CZ-6A DEB

AliveSSO
NORAD 55548·DEBRIS·🇨🇳 China

Launched Nov 11, 2022 from Taiyuan Satellite Launch Center

Loading…

Next Passes (next 24 hours)

TLE

FreshSource: Space-Track

Epoch: Sep 14, 2026, 12:24 UTC

1 55548U 22151YW  26257.51697771  .00002407  00000-0  82301-3 0  9993
2 55548  98.6814 276.2126 0066378 210.1600 149.5757 14.35986325199554

Track CZ-6A DEB in real time with AllMySat

Download on the App Store